Powrót do katalogu

Zorkiy-2M VPE

AktywnyMilitariaSSO
NORAD 67252·PAYLOAD·🇷🇺 Russia

Wystrzelony Dec 28, 2025 z Vostochny Cosmodrome

Loading…

Następne Przeloty (najbliższe 24 godziny)

TLE

ŚwieżeSource: Space-Track

Epoka: Sep 14, 2026, 10:21 UTC

1 67252U 25313E   26257.43154345  .00005337  00000-0  21444-3 0  9993
2 67252  97.3875 331.2690 0010564  38.2831 321.9155 15.25316968 39574

Śledź Zorkiy-2M VPE w czasie rzeczywistym z AllMySat

Download on the App Store